This is the latest recevied weather packets stored in our database for station/object I4GOS-3. If no packets are shown the sender has not sent any weather packets the latest 1 day(s).
| Time | Temp. | Humidity | Pressure | Rain* | Wind** | Luminosity | Snow |
|---|---|---|---|---|---|---|---|
| 1778052538 | 18.33° C | 69% | 1011.1 hPa | 0 mm | - | - | - |
| 1778052238 | 18.33° C | 70% | 1011.1 hPa | 0 mm | - | - | - |
| 1778051938 | 18.33° C | 71% | 1011.2 hPa | 0 mm | - | - | - |
| 1778051638 | 17.78° C | 72% | 1011.3 hPa | 0 mm | - | - | - |
| 1778051337 | 17.78° C | 73% | 1011.2 hPa | 0 mm | - | - | - |
| 1778050737 | 17.22° C | 75% | 1011.3 hPa | 0 mm | - | - | - |
| 1778050437 | 16.67° C | 74% | 1011.2 hPa | 0 mm | - | - | - |
| 1778050136 | 16.67° C | 71% | 1011.4 hPa | 0 mm | - | - | - |
| 1778049836 | 16.67° C | 70% | 1011.5 hPa | 0 mm | - | - | - |
| 1778049536 | 16.67° C | 68% | 1011.5 hPa | 0 mm | - | - | - |
| 1778049236 | 16.67° C | 68% | 1011.5 hPa | 0 mm | - | - | - |
| 1778048635 | 16.67° C | 69% | 1011.5 hPa | 0 mm | - | - | - |
| 1778048335 | 16.67° C | 70% | 1011.6 hPa | 0 mm | - | - | - |
| 1778048035 | 16.67° C | 71% | 1011.6 hPa | 0 mm | - | - | - |
| 1778047134 | 16.67° C | 72% | 1011.6 hPa | 0 mm | - | - | - |
| 1778046834 | 16.11° C | 73% | 1011.8 hPa | 0 mm | - | - | - |
| 1778046534 | 16.11° C | 73% | 1011.9 hPa | 0 mm | - | - | - |
| 1778045933 | 16.11° C | 74% | 1011.9 hPa | 0 mm | - | - | - |
| 1778045633 | 16.11° C | 74% | 1011.9 hPa | 0 mm | - | - | - |
| 1778045333 | 16.11° C | 75% | 1011.8 hPa | 1.02 mm | - | - | - |
| 1778044432 | 16.11° C | 75% | 1011.7 hPa | 1.02 mm | - | - | - |
| 1778044132 | 16.11° C | 76% | 1011.7 hPa | 1.78 mm | - | - | - |
| 1778043531 | 16.11° C | 76% | 1011.9 hPa | 1.27 mm | - | - | - |
| 1778043231 | 16.11° C | 76% | 1011.9 hPa | 1.27 mm | - | - | - |
| 1778042931 | 16.67° C | 75% | 1011.9 hPa | 1.02 mm | - | - | - |
* Rain latest hour (hover to see other rain measurements)
** Current wind speed in m/s (hover to see current wind gust speed)